Regional Weather Roundup
Issued by NWS

Home | Current Version | Previous Version | Graphics & Text | Print | Product List | Glossary On
Versions: 1 2 3 4 5 6 7 8 9 10 11 12 13 14 15 16 17 18 19 20 21 22 23 24 25 26 27 28 29 30 31 32 33 34 35 36 37 38 39 40 41 42 43 44 45 46 47 48 49 50
000
ASUS43 KMKX 261800
RWRWI

WISCONSIN REGIONAL WEATHER ROUNDUP
NATIONAL WEATHER SERVICE MILWAUKEE/SULLIVAN WI
100 PM CDT THU MAR 26 2015

NOTE: "FAIR" INDICATES FEW OR NO CLOUDS BELOW 12,000 FEET WITH NO
SIGNIFICANT WEATHER AND/OR OBSTRUCTIONS TO VISIBILITY.

WIZ001-002-006>008-014>016-023>028-261900-
NORTHWEST WISCONSIN

CITY           SKY/WX    TMP DP  RH WIND       PRES   REMARKS
SUPERIOR ARPT  CLOUDY    29  13  51 NW15      30.14S WCI  18
ASHLAND        CLOUDY    26  13  57 N10       30.12R WCI  16
6HR MIN TEMP:  23; 6HR MAX TEMP:  27; 6HR PCP: TRACE;

HAYWARD        CLOUDY    26  12  55 N8G16     30.08R WCI  18
6HR MIN TEMP:  23; 6HR MAX TEMP:  26; 6HR PCP: TRACE;

SIREN          CLOUDY    31  12  46 N10G18    30.09F WCI  22
CUMBERLAND     CLOUDY    30  14  51 NW12G23   30.07S WCI  21
RICE LAKE      CLOUDY    30  14  51 N10       30.09S WCI  21
CHETEK         CLOUDY    30  16  56 NW6G16    30.08R WCI  24
LADYSMITH      CLOUDY    29  16  59 N14       30.06S WCI  18
EAU CLAIRE     CLOUDY    32  16  51 NW12      30.07R WCI  23
6HR MIN TEMP:  30; 6HR MAX TEMP:  33;

MENOMONIE      PTSUNNY   33  15  47 NW14G22   30.08R WCI  23
NEW RICHMOND   CLOUDY    32  16  52 N15       30.10S WCI  21
OSCEOLA        CLOUDY    32  17  53 N8        30.13S WCI  25
$$

WIZ003>005-009-010-017-018-261900-
NORTH CENTRAL WISCONSIN

CITY           SKY/WX    TMP DP  RH WIND       PRES   REMARKS
MANITOWISH WTR LGT SNOW  21  13  71 N10G18    30.00R WCI  10
ARBOR VITAE    FLURRIES  23  13  66 N18       29.99R WCI   9
WOODRUFF       FLURRIES  23  13  66 N18       29.99R WCI   9
RHINELANDER    FLURRIES  24  11  57 NW13      29.98R WCI  12
6HR MIN TEMP:  23; 6HR MAX TEMP:  26; 6HR PCP: TRACE;

EAGLE RIVER    FLURRIES  22  11  60 N17G23    29.96S WCI   8
LAND O LAKES   LGT SNOW  21  12  68 N14G24    29.98R WCI   8
PHILLIPS       CLOUDY    23  12  63 N10G21    30.02R WCI  12
TOMAHAWK       FLURRIES  24  14  64 NW9G21    30.00R WCI  15
MEDFORD        CLOUDY    26  14  61 N14       29.99F WCI  14
MERRILL        CLOUDY    28  13  55 N14G21    29.98F WCI  16
$$

WIZ029-030-035-036-043>047-261900-
CENTRAL WISCONSIN

CITY           SKY/WX    TMP DP  RH WIND       PRES   REMARKS
WAUSAU         CLOUDY    27  15  61 NW15      29.97S WCI  15
6HR MIN TEMP:  27; 6HR MAX TEMP:  30; 6HR PCP: TRACE;

MOSINEE        CLOUDY    28  18  64 N12       29.99S WCI  18
MARSHFIELD     CLOUDY    30  18  60 NW15      30.00S WCI  19
6HR MIN TEMP:  28; 6HR MAX TEMP:  30;

STEVENS POINT  CLOUDY    28  16  63 NW14G20   29.99S WCI  16
WAUPACA        CLOUDY    35  19  52 NW16      29.98S WCI  25
WAUTOMA        CLOUDY    32  21  64 NW17G23   29.99S WCI  21
WISC RAPIDS    CLOUDY    30  16  56 N14       30.02R WCI  19
6HR MIN TEMP:  29; 6HR MAX TEMP:  32;

CAMP DOUGLAS   NOT AVBL
$$

WIZ011>013-019>022-031-037>040-048>050-261900-
NORTHEAST WISCONSIN

CITY           SKY/WX    TMP DP  RH WIND       PRES   REMARKS
ANTIGO         CLOUDY    26  16  63 NW16      29.95S WCI  14
SHAWANO        CLOUDY    33  19  55 NW12G18   29.96S WCI  25
OCONTO         CLOUDY    32  19  57 NW12      29.94S WCI  23
STURGEON BAY   CLOUDY    30  19  64 N16       29.96R WCI  19
6HR MIN TEMP:  28; 6HR MAX TEMP:  34;

GREEN BAY      CLOUDY    33  21  61 NW14      29.96R WCI  23
6HR MIN TEMP:  33; 6HR MAX TEMP:  35;

MANITOWOC      LGT RAIN  34  23  64 N16       29.95R WCI  23
APPLETON       CLOUDY    32  18  55 NW15      29.96S WCI  22
CLINTONVILLE   CLOUDY    32  19  59 NW13      29.97S WCI  22
OSHKOSH        CLOUDY    33  20  58 NW16G22   29.96S WCI  23
6HR MIN TEMP:  32; 6HR MAX TEMP:  34; 6HR PCP: TRACE;

$$

WIZ032>034-041-042-053>061-261900-
SOUTHWEST WISCONSIN

CITY           SKY/WX    TMP DP  RH WIND       PRES   REMARKS
LA CROSSE      CLOUDY    35  22  58 NW12      30.06S WCI  27
6HR MIN TEMP:  34; 6HR MAX TEMP:  35;

SPARTA         CLOUDY    34  19  54 NW12G22   30.04F WCI  25
VIROQUA        CLOUDY    32  21  64 NW12      30.02S WCI  23
BOSCOBEL       CLOUDY    36  22  56 NW8       30.04F WCI  30
6HR MIN TEMP:  30; 6HR MAX TEMP:  36;

PRAIRIE DU CHI CLOUDY    35  20  56 W14G20    30.06S WCI  25
PLATTEVILLE    PTSUNNY   36  25  63 W14       30.02F WCI  27
$$

WIZ056-057-062-063-064-067-068-261900-
SOUTH CENTRAL WISCONSIN

CITY           SKY/WX    TMP DP  RH WIND       PRES   REMARKS
REEDSBURG      CLOUDY    33  20  57 NW14G22   30.00F WCI  24
BARABOO/DELLS  CLOUDY    33  19  55 NW13      29.99F WCI  24
LONE ROCK      NOT AVBL
MINERAL POINT  CLOUDY    36  21  55 NW14G21   30.00S WCI  27
MADISON        CLOUDY    36  20  52 NW14G23   29.98F WCI  27
6HR MIN TEMP:  31; 6HR MAX TEMP:  37;

MIDDLETON      CLOUDY    37  22  55 NW14      29.99F WCI  28
WATERTOWN      CLOUDY    35  22  58 NW15      29.96S WCI  26
MONROE         CLOUDY    36  23  60 NW14G20   29.98F WCI  27
JANESVILLE     CLOUDY    37  25  60 NW17      29.98F WCI  28
$$

WIZ051-052-058>065-066-070>072-261900-
SOUTHEAST WISCONSIN

CITY           SKY/WX    TMP DP  RH WIND       PRES   REMARKS
MILWAUKEE      CLOUDY    38  20  48 N13       29.96S WCI  30
6HR MIN TEMP:  36; 6HR MAX TEMP:  39;

WAUKESHA       CLOUDY    34  21  60 NW15      29.97S WCI  24
MILWAUKEE/TIMM CLOUDY    36  19  51 NW10      29.96S WCI  28
RACINE         CLOUDY    39  21  48 NW9       29.96F WCI  33
6HR MIN TEMP:  35; 6HR MAX TEMP:  41;

BURLINGTON     CLOUDY    36  22  56 NW15G22   29.97R WCI  26
KENOSHA        CLOUDY    39  24  55 W13       29.95F WCI  31
6HR MIN TEMP:  35; 6HR MAX TEMP:  40;

FOND DU LAC    CLOUDY    34  21  59 NW16      29.96S WCI  24
6HR MIN TEMP:  34; 6HR MAX TEMP:  35;

SHEBOYGAN      CLOUDY    34  22  61 NW13      29.95R WCI  25
6HR MIN TEMP:  34; 6HR MAX TEMP:  36;

WEST BEND      CLOUDY    34  23  64 NW13      29.95S WCI  25
JUNEAU         CLOUDY    33  22  63 NW13G20   29.97S WCI  24
$$

LSZ147-162-261900-
LAKE SUPERIOR

STATION/POSITION TIME  TEMP    WIND        PRES    WAVE
                       AIR SEA DIR/SP/G            HT/PER
                 (UTC) (F)     (DEG/KT/KT) (MB)    (FT/S)
DEVILS ISLAND    1700   20     350/ 13/ 17 1021.7R
PORT WING        1700   24      30/  6/  9 1021.0
$$

LMZ867-665-643>646-261900-
LAKE MICHIGAN

STATION/POSITION TIME  TEMP    WIND        PRES    WAVE
                       AIR SEA DIR/SP/G            HT/PER
                 (UTC) (F)     (DEG/KT/KT) (MB)    (FT/S)
NORTHPORT PIER   1704   28     330/ 18/ 23 1013.9R
SISTER BAY       1717   32     340/ 21/ 26   N/A
KEWAUNEE LAKESHO 1700   34     310/ 10/ 14 1013.0R
SHEBOYGAN LAKESH 1700   35     300/ 13/ 15 1014.9R
PORT WASHINGTON  1740   36     320/  6/ 14 1014.9F
MILWAUKEE LAKESH 1700   37     310/ 12/ 17   N/A
KENOSHA   LAKESH 1700   38     320/  9/ 16 1014.6F
$$

TC  - TEMPERATURE IN CELSIUS
VSB - VISIBILITY IN STATUTE MILES
WCI - WIND CHILL INDEX
HX  - HEAT INDEX




USA.gov is the U.S. government's official web portal to all federal, state and local government web resources and services.